GW7169 Weather Reports


Display with metric or nautical units.
time (UTC)temp
F
wind
direction
speed
MPH
gust
MPH
rain 1hr
in
rain 24hr
in
rain mn
in
humidity
%
barometer
mb
20260504100344 60 219 3.0 3.0 0.00 0.00 0.02 56 1013.9
20260504081845 63 229 3.0 7.0 0.00 0.00 0.00 40 1013.5
20260504081346 62 7 6.0 8.0 0.00 0.00 0.00 41 1013.5
20260504080844 62 356 7.0 13.0 0.00 0.00 0.00 41 1013.5
20260504080344 62 158 2.0 2.0 0.00 0.00 0.00 43 1013.5
20260504070344 62 314 2.0 2.0 0.00 0.00 0.00 42 1013.5
20260504050344 56 320 2.0 3.0 0.00 0.00 0.00 51 1013.5
20260504045846 58 274 3.0 5.0 0.00 0.00 0.00 54 1013.9
20260504045344 57 209 3.0 3.0 0.00 0.00 0.00 54 1013.5
20260504044844 57 260 2.0 3.0 0.00 0.00 0.00 56 1014.2
20260504044344 57 287 3.0 3.0 0.00 0.00 0.00 59 1013.9
20260504043844 56 280 2.0 2.0 0.00 0.00 0.00 60 1013.9
20260504043344 55 269 1.0 1.0 0.00 0.00 0.00 62 1013.5
20260504042845 55 234 3.0 3.0 0.00 0.00 0.00 63 1013.5
20260504042344 54 236 1.0 1.0 0.00 0.00 0.00 63 1013.9
20260504041429 54 333 3.0 5.0 0.00 0.00 0.00 63 1013.9
20260504040845 54 188 1.0 2.0 0.00 0.00 0.00 63 1013.5
20260504040344 54 182 4.0 9.0 0.00 0.00 0.00 62 1013.5
20260504035845 54 252 3.0 6.0 0.00 0.00 0.00 60 1013.5
20260504035345 54 260 1.0 1.0 0.00 0.00 0.00 59 1013.5
20260504034844 54 208 5.0 8.0 0.00 0.00 0.00 59 1013.5
20260504034344 55 113 4.0 7.0 0.00 0.00 0.00 58 1013.5
20260504033844 54 261 1.0 1.0 0.00 0.00 0.00 58 1013.2
20260504033345 54 274 1.0 1.0 0.00 0.00 0.00 57 1013.2
20260504032845 54 256 2.0 5.0 0.00 0.00 0.00 58 1013.2
20260504032345 55 280 2.0 2.0 0.00 0.00 0.00 56 1012.9
20260504031845 55 243 1.0 1.0 0.00 0.00 0.00 54 1012.9
20260504031346 55 275 1.0 1.0 0.00 0.00 0.00 50 1012.9
20260504030844 54 238 1.0 1.0 0.00 0.00 0.00 49 1013.2
20260504030345 53 269 2.0 2.0 0.00 0.00 0.00 49 1012.9
20260504025844 53 281 0.0 0.0 0.00 0.00 0.00 50 1012.9
20260504025344 53 225 4.0 5.0 0.00 0.00 0.00 50 1012.9
20260504024844 54 274 1.0 1.0 0.00 0.00 0.00 51 1013.2
20260504024344 54 217 1.0 1.0 0.00 0.00 0.00 51 1012.9
20260504023846 54 211 1.0 1.0 0.00 0.00 0.00 51 1013.2
20260504023344 54 212 2.0 3.0 0.00 0.00 0.00 51 1012.9
20260504022844 54 247 1.0 1.0 0.00 0.00 0.00 52 1013.2
20260504022344 54 285 2.0 2.0 0.00 0.00 0.00 51 1012.9
20260504021844 54 265 0.0 0.0 0.00 0.00 0.00 52 1013.2
20260504021345 54 299 0.0 0.0 0.00 0.00 0.00 52 1013.2
20260504020401 54 237 2.0 3.0 0.00 0.00 0.00 52 1012.9
20260504015844 54 226 1.0 1.0 0.00 0.00 0.00 52 1012.9
20260504015344 54 263 0.0 0.0 0.00 0.00 0.00 53 1012.9
20260504014845 54 235 0.0 0.0 0.00 0.00 0.00 56 1012.9
20260504014344 54 228 1.0 1.0 0.00 0.00 0.00 56 1012.9
20260504013844 54 232 0.0 0.0 0.00 0.00 0.00 57 1012.9
20260504013344 54 278 1.0 1.0 0.00 0.00 0.00 57 1012.9
20260504012845 54 234 0.0 0.0 0.00 0.00 0.00 58 1012.9
20260504012345 54 235 1.0 1.0 0.00 0.00 0.00 59 1012.9
20260504011844 54 219 1.0 2.0 0.00 0.00 0.00 59 1012.9
20260504011344 54 275 1.0 2.0 0.00 0.00 0.00 60 1012.5
20260504010844 54 229 2.0 2.0 0.00 0.00 0.00 61 1012.9
20260504010346 54 168 1.0 1.0 0.00 0.00 0.00 60 1012.9
20260504005844 54 262 1.0 1.0 0.00 0.00 0.00 60 1012.9
20260504005345 54 269 1.0 1.0 0.00 0.00 0.00 59 1012.9
20260504004844 54 246 1.0 1.0 0.00 0.00 0.00 58 1012.9
20260504004344 55 200 3.0 7.0 0.00 0.00 0.00 57 1012.9
20260504003844 55 282 1.0 2.0 0.00 0.00 0.00 51 1012.9
20260504003344 55 207 2.0 2.0 0.00 0.00 0.00 49 1012.9
20260504002845 55 268 1.0 1.0 0.00 0.00 0.00 49 1012.9
20260504002345 55 126 3.0 6.0 0.00 0.00 0.00 48 1012.5
20260504001845 55 212 3.0 3.0 0.00 0.00 0.00 50 1012.5
20260504000912 55 137 1.0 2.0 0.00 0.00 0.00 52 1012.5
20260503235946 54 257 8.0 10.0 0.00 0.00 0.00 54 1012.5
20260503235353 54 257 2.0 2.0 0.00 0.00 0.00 54 1012.5
20260503234849 54 244 2.0 3.0 0.00 0.00 0.00 53 1012.2
20260503234344 54 231 0.0 0.0 0.00 0.00 0.00 53 1012.5
20260503233845 54 312 3.0 3.0 0.00 0.00 0.00 53 1012.9
20260503233344 55 228 5.0 6.0 0.00 0.00 0.00 52 1012.5
20260503232844 55 246 1.0 1.0 0.00 0.00 0.00 52 1012.9
20260503232344 55 275 2.0 2.0 0.00 0.00 0.00 51 1012.5
20260503231844 55 257 2.0 2.0 0.00 0.00 0.00 50 1012.9
20260503231344 55 286 3.0 3.0 0.00 0.00 0.00 50 1012.9
20260503230844 55 247 2.0 2.0 0.00 0.00 0.00 51 1012.9
20260503230344 55 201 2.0 2.0 0.00 0.00 0.00 51 1012.9
20260503225844 56 267 4.0 6.0 0.00 0.00 0.00 51 1012.9
20260503225345 56 262 7.0 11.0 0.00 0.00 0.00 51 1013.2
20260503224844 56 274 7.0 8.0 0.00 0.00 0.00 51 1012.9
20260503224346 56 253 6.0 8.0 0.00 0.00 0.00 50 1012.9
20260503223845 56 265 4.0 6.0 0.00 0.00 0.00 49 1012.9
20260503223344 57 267 2.0 3.0 0.00 0.00 0.00 50 1012.9
20260503222844 57 310 5.0 10.0 0.00 0.00 0.00 49 1012.9
20260503222344 57 323 1.0 5.0 0.00 0.00 0.00 51 1012.9
20260503221844 57 275 5.0 6.0 0.00 0.00 0.00 51 1012.9
20260503221344 57 252 3.0 7.0 0.00 0.00 0.00 52 1012.9
20260503220844 57 166 2.0 2.0 0.00 0.00 0.00 52 1012.9
20260503220345 57 260 1.0 1.0 0.00 0.00 0.00 54 1012.9
20260503215845 57 190 2.0 2.0 0.00 0.00 0.00 56 1012.5
20260503215344 57 211 6.0 10.0 0.00 0.00 0.00 58 1012.9
20260503214845 57 331 3.0 3.0 0.00 0.00 0.00 57 1012.9
20260503214344 57 181 1.0 2.0 0.00 0.00 0.00 54 1012.9
20260503213845 57 245 2.0 6.0 0.00 0.00 0.00 55 1012.9
20260503213345 57 310 7.0 8.0 0.00 0.00 0.00 54 1012.9
20260503212844 57 263 4.0 8.0 0.00 0.00 0.00 55 1012.9
20260503212344 57 321 3.0 3.0 0.00 0.00 0.00 55 1012.9
20260503211844 57 273 3.0 3.0 0.00 0.00 0.00 55 1012.9
20260503211345 57 262 3.0 5.0 0.00 0.00 0.00 55 1012.9
20260503210844 57 3 5.0 9.0 0.00 0.00 0.00 54 1012.9
20260503210344 57 254 7.0 10.0 0.00 0.00 0.00 54 1012.9
20260503205845 57 269 6.0 8.0 0.00 0.00 0.00 54 1012.9
20260503205344 57 302 3.0 5.0 0.00 0.00 0.00 54 1012.9
20260503204845 57 227 3.0 5.0 0.00 0.00 0.00 53 1012.9
20260503204345 57 239 6.0 9.0 0.00 0.00 0.00 53 1012.9
20260503203845 58 328 4.0 6.0 0.00 0.00 0.00 54 1012.9
20260503203344 58 287 5.0 8.0 0.00 0.00 0.00 52 1012.9
20260503202844 58 211 4.0 10.0 0.00 0.00 0.00 52 1012.9
20260503202345 58 209 9.0 13.0 0.00 0.00 0.00 52 1012.9
20260503201848 59 243 5.0 10.0 0.00 0.00 0.00 52 1012.9
20260503201345 59 235 5.0 7.0 0.00 0.00 0.00 50 1012.9
20260503200845 60 244 5.0 7.0 0.00 0.00 0.00 49 1012.9
20260503200344 59 288 7.0 9.0 0.00 0.00 0.00 50 1012.5
20260503195844 60 234 5.0 9.0 0.00 0.00 0.00 50 1012.9
20260503195344 60 212 6.0 10.0 0.00 0.00 0.00 50 1012.5
20260503194845 60 262 5.0 9.0 0.00 0.00 0.00 51 1012.9
20260503194344 60 234 5.0 7.0 0.00 0.00 0.00 52 1012.5
20260503193844 61 216 2.0 5.0 0.00 0.00 0.00 52 1012.5
20260503193344 61 272 2.0 2.0 0.00 0.00 0.00 54 1012.5
20260503192845 61 243 2.0 3.0 0.00 0.00 0.00 54 1012.9
20260503192344 61 182 8.0 10.0 0.00 0.00 0.00 54 1012.5
20260503191845 61 349 3.0 6.0 0.00 0.00 0.00 53 1012.9
20260503191344 61 237 4.0 6.0 0.00 0.00 0.00 53 1012.5
20260503190844 61 230 2.0 3.0 0.00 0.00 0.00 54 1012.5
20260503190345 61 293 4.0 6.0 0.00 0.00 0.00 54 1012.5
20260503185844 60 249 1.0 1.0 0.00 0.00 0.00 55 1012.2
20260503185345 60 230 2.0 3.0 0.00 0.00 0.00 55 1012.5
20260503184844 61 278 9.0 14.0 0.00 0.00 0.00 55 1012.5
20260503184344 61 281 2.0 2.0 0.00 0.00 0.00 54 1012.5
20260503183845 61 326 6.0 10.0 0.00 0.00 0.00 54 1012.5
20260503183346 62 324 8.0 14.0 0.00 0.00 0.00 55 1012.5
20260503182844 62 262 3.0 9.0 0.00 0.00 0.00 54 1012.2
20260503182344 62 246 5.0 7.0 0.00 0.00 0.00 53 1011.9
20260503181844 62 269 4.0 5.0 0.00 0.00 0.00 53 1011.5
20260503181344 62 286 4.0 5.0 0.00 0.00 0.00 55 1011.9
20260503180844 62 192 3.0 5.0 0.00 0.00 0.00 57 1011.9
20260503180344 63 22 2.0 2.0 0.00 0.00 0.00 56 1011.9
20260503175844 64 245 2.0 3.0 0.00 0.00 0.00 54 1011.5
20260503175345 64 283 2.0 3.0 0.00 0.00 0.00 51 1011.2
20260503174845 64 155 1.0 1.0 0.00 0.00 0.00 51 1011.2
20260503174344 64 285 1.0 2.0 0.00 0.00 0.00 51 1011.2
20260503173844 64 248 1.0 1.0 0.00 0.00 0.00 51 1011.2
20260503173345 63 184 1.0 1.0 0.00 0.00 0.00 52 1011.2
20260503172844 63 244 2.0 3.0 0.00 0.00 0.00 52 1011.2
20260503172346 63 295 2.0 2.0 0.00 0.00 0.00 52 1011.2
20260503171844 63 261 1.0 2.0 0.00 0.00 0.00 52 1011.2
20260503171344 63 226 2.0 2.0 0.00 0.00 0.00 52 1011.2
20260503170844 63 279 3.0 3.0 0.00 0.00 0.00 52 1011.2
20260503170345 63 249 4.0 8.0 0.00 0.00 0.00 52 1011.2
20260503150844 68 316 7.0 9.0 0.00 0.00 0.00 46 1009.1
20260503150345 68 292 4.0 5.0 0.00 0.00 0.00 45 1009.5
20260503131345 73 267 3.0 3.0 0.00 0.00 0.00 42 1008.5
20260503130844 73 249 6.0 10.0 0.00 0.00 0.00 40 1008.8
20260503130344 74 256 8.0 16.0 0.00 0.00 0.00 39 1008.8
20260503110345 80 245 3.0 5.0 0.00 0.00 0.00 33 1007.8